Terminal Aerodrome Forecast
Issued by NWS

Home | Current Version | Previous Version | Text Only | Print | Product List | Glossary On
Versions: 1 2 3 4 5 6 7 8 9 10 11 12 13 14 15 16 17 18 19 20 21 22 23 24
000
FTUS43 KDLH 271731
TAFBRD
TAF
KBRD 271731Z 2718/2818 15010G17KT P6SM SCT030 BKN040
     FM280200 15004KT P6SM FEW250
     FM280900 14004KT P6SM VCTS SCT025 BKN040CB
     FM281300 15008KT P6SM VCSH SCT007 OVC020
     FM281700 18015G24KT P6SM SCT020=

USA.gov is the U.S. government's official web portal to all federal, state and local government web resources and services.